H1 CPF 2 NER 2022 10 5 9 278 01 glonass137 H2 1705501 9137 42939 2022 10 5 0 0 0 2022 10 8 23 45 0 900 1 1 0 0 0 1 H9 10 0 59857 0.00000 0 -5480151.956 10082309.470 -22763352.954 10 0 59857 900.00000 0 -7556360.355 8169958.475 -22936150.366 10 0 59857 1800.00000 0 -9758933.098 6414833.707 -22662767.229 10 0 59857 2700.00000 0 -12031208.490 4856477.516 -21948592.350 10 0 59857 3600.00000 0 -14310997.696 3523626.701 -20807592.183 10 0 59857 4500.00000 0 -16533016.465 2433210.322 -19262033.070 10 0 59857 5400.00000 0 -18631460.882 1589856.701 -17342041.903 10 0 59857 6300.00000 0 -20542619.742 985928.674 -15085014.005 10 0 59857 7200.00000 0 -22207414.559 602083.870 -12534880.066 10 0 59857 8100.00000 0 -23573761.292 408334.714 -9741246.635 10 0 59857 9000.00000 0 -24598655.413 365561.788 -6758427.150 10 0 59857 9900.00000 0 -25249893.444 427415.274 -3644382.712 10 0 59857 10800.00000 0 -25507359.535 542522.862 -459593.507 10 0 59857 11700.00000 0 -25363823.861 656909.799 2734116.923 10 0 59857 12600.00000 0 -24825220.160 716528.012 5874781.347 10 0 59857 13500.00000 0 -23910391.597 669786.837 8901489.064 10 0 59857 14400.00000 0 -22650316.325 469978.098 11755563.376 10 0 59857 15300.00000 0 -21086845.841 77492.950 14381693.615 10 0 59857 16200.00000 0 -19271009.306 -538263.142 16729000.241 10 0 59857 17100.00000 0 -17260954.887 -1397338.088 18752012.990 10 0 59857 18000.00000 0 -15119613.968 -2508148.232 20411543.891 10 0 59857 18900.00000 0 -12912185.195 -3866886.772 21675439.143 10 0 59857 19800.00000 0 -10703542.464 -5457451.114 22519196.194 10 0 59857 20700.00000 0 -8555673.835 -7251893.146 22926434.833 10 0 59857 21600.00000 0 -6525256.824 -9211374.964 22889213.742 10 0 59857 22500.00000 0 -4661469.735 -11287591.688 22408186.689 10 0 59857 23400.00000 0 -3004129.027 -13424603.698 21492595.212 10 0 59857 24300.00000 0 -1582229.200 -15561003.630 20160097.569 10 0 59857 25200.00000 0 -412945.183 -17632329.469 18436436.473 10 0 59857 26100.00000 0 498861.723 -19573624.459 16354951.065 10 0 59857 27000.00000 0 1160614.178 -21322038.135 13955941.494 10 0 59857 27900.00000 0 1591466.926 -22819360.514 11285897.159 10 0 59857 28800.00000 0 1821255.992 -24014383.682 8396602.677 10 0 59857 29700.00000 0 1888993.344 -24864991.718 5344138.033 10 0 59857 30600.00000 0 1840970.643 -25339890.827 2187791.802 10 0 59857 31500.00000 0 1728552.458 -25419906.166 -1011091.486 10 0 59857 32400.00000 0 1605752.814 -25098789.976 -4190307.296 10 0 59857 33300.00000 0 1526698.430 -24383506.014 -7288006.567 10 0 59857 34200.00000 0 1543087.016 -23293977.420 -10243906.220 10 0 59857 35100.00000 0 1701749.587 -21862307.931 -13000470.290 10 0 59857 36000.00000 0 2042421.311 -20131508.711 -15504037.761 10 0 59857 36900.00000 0 2595816.705 -18153784.089 -17705874.252 10 0 59857 37800.00000 0 3382091.957 -15988448.242 -19563126.424 10 0 59857 38700.00000 0 4409760.724 -13699560.311 -21039660.103 10 0 59857 39600.00000 0 5675110.304 -11353377.409 -22106765.517 10 0 59857 40500.00000 0 7162143.890 -9015732.265 -22743715.976 10 0 59857 41400.00000 0 8843052.222 -6749445.284 -22938169.300 10 0 59857 42300.00000 0 10679195.516 -4611879.065 -22686404.493 10 0 59857 43200.00000 0 12622555.014 -2652737.087 -21993389.450 10 0 59857 44100.00000 0 14617593.760 -912197.746 -20872678.780 10 0 59857 45000.00000 0 16603448.844 580539.313 -19346144.095 10 0 59857 45900.00000 0 18516363.535 1808235.199 -17443542.366 10 0 59857 46800.00000 0 20292257.626 2766082.662 -15201931.004 10 0 59857 47700.00000 0 21869328.387 3461647.881 -12664941.362 10 0 59857 48600.00000 0 23190573.383 3914287.537 -9881925.031 10 0 59857 49500.00000 0 24206129.589 4154067.568 -6906989.810 10 0 59857 50400.00000 0 24875330.995 4220230.853 -3797944.446 10 0 59857 51300.00000 0 25168398.792 4159280.087 -615172.986 10 0 59857 52200.00000 0 25067693.687 4022758.054 2579539.127 10 0 59857 53100.00000 0 24568478.290 3864820.120 5724204.047 10 0 59857 54000.00000 0 23679158.200 3739702.250 8757832.210 10 0 59857 54900.00000 0 22420992.137 3699192.031 11621611.455 10 0 59857 55800.00000 0 20827283.711 3790209.696 14260041.777 10 0 59857 56700.00000 0 18942088.909 4052601.342 16622004.196 10 0 59857 57600.00000 0 16818493.319 4517237.372 18661743.659 10 0 59857 58500.00000 0 14516530.813 5204496.251 20339747.613 10 0 59857 59400.00000 0 12100829.966 6123197.474 21623504.196 10 0 59857 60300.00000 0 9638085.352 7270028.992 22488126.230 10 0 59857 61200.00000 0 7194457.983 8629493.694 22916829.671 10 0 59857 62100.00000 0 4833011.727 10174378.206 22901257.881 10 0 59857 63000.00000 0 2611290.904 11866725.661 22441645.714 10 0 59857 63900.00000 0 579138.548 13659273.247 21546820.185 10 0 59857 64800.00000 0 -1223155.212 15497296.090 20234037.325 10 0 59857 65700.00000 0 -2766298.635 17320782.096 18528657.617 10 0 59857 66600.00000 0 -4032978.253 19066848.284 16463665.353 10 0 59857 67500.00000 0 -5018332.917 20672298.826 14079040.077 10 0 59857 68400.00000 0 -5729902.616 22076218.605 11420991.129 10 0 59857 69300.00000 0 -6187054.464 23222493.982 8541069.114 10 0 59857 70200.00000 0 -6419910.201 24062155.070 5495170.723 10 0 59857 71100.00000 0 -6467820.635 24555440.663 2342455.648 10 0 59857 72000.00000 0 -6377451.599 24673498.199 -855803.436 10 0 59857 72900.00000 0 -6200562.824 24399646.218 -4037415.285 10 0 59857 73800.00000 0 -5991574.317 23730144.964 -7140485.216 10 0 59857 74700.00000 0 -5805024.140 22674441.545 -10104626.425 10 0 59857 75600.00000 0 -5693026.302 21254878.266 -12872143.080 10 0 59857 76500.00000 0 -5702837.627 19505875.550 -15389161.272 10 0 59857 77400.00000 0 -5874637.862 17472623.192 -17606684.867 10 0 59857 78300.00000 0 -6239618.197 15209334.555 -19481555.057 10 0 59857 79200.00000 0 -6818460.211 12777136.735 -20977294.510 10 0 59857 80100.00000 0 -7620270.525 10241685.121 -22064819.361 10 0 59857 81000.00000 0 -8642017.017 7670602.190 -22723005.236 10 0 59857 81900.00000 0 -9868491.113 5130847.520 -22939096.486 10 0 59857 82800.00000 0 -11272798.305 2686128.775 -22708950.932 10 0 59857 83700.00000 0 -12817356.690 394461.318 -22037115.802 10 0 59857 84600.00000 0 -14455361.893 -1694022.414 -20936733.723 10 0 59857 85500.00000 0 -16132657.022 -3538923.216 -19429281.050 10 0 59858 0.00000 0 -17789929.122 -5111009.020 -17544144.091 10 0 59858 900.00000 0 -19365140.902 -6393174.816 -15318040.701 10 0 59858 1800.00000 0 -20796093.437 -7380888.049 -12794301.411 10 0 59858 2700.00000 0 -22023015.267 -8082105.611 -10022020.935 10 0 59858 3600.00000 0 -22991067.003 -8516665.657 -7055099.270 10 0 59858 4500.00000 0 -23652657.201 -8715182.603 -3951190.459 10 0 59858 5400.00000 0 -23969472.246 -8717493.505 -770579.889 10 0 59858 6300.00000 0 -23914135.190 -8570722.831 2424987.774 10 0 59858 7200.00000 0 -23471424.132 -8327048.586 5573506.874 10 0 59858 8100.00000 0 -22638999.317 -8041265.062 8613911.909 10 0 59858 9000.00000 0 -21427608.701 -7768245.784 11487258.215 10 0 59858 9900.00000 0 -19860763.614 -7560414.093 14137859.383 10 0 59858 10800.00000 0 -17973898.172 -7465328.197 16514359.816 10 0 59858 11700.00000 0 -15813047.442 -7523482.441 18570722.241 10 0 59858 12600.00000 0 -13433099.249 -7766417.238 20267111.781 10 0 59858 13500.00000 0 -10895691.858 -8215217.063 21570660.352 10 0 59858 14400.00000 0 -8266844.151 -8879459.689 22456097.508 10 0 59858 15300.00000 0 -5614415.800 -9756660.980 22906236.234 10 0 59858 16200.00000 0 -3005501.636 -10832239.110 22912304.934 10 0 59858 17100.00000 0 -503866.979 -12080000.574 22474119.443 10 0 59858 18000.00000 0 1832470.876 -13463128.769 21600091.726 10 0 59858 18900.00000 0 3953415.945 -14935635.142 20307074.681 10 0 59858 19800.00000 0 5818632.465 -16444213.642 18620045.325 10 0 59858 20700.00000 0 7398973.751 -17930422.208 16571631.556 10 0 59858 21600.00000 0 8677442.242 -19333101.198 14201490.503 10 0 59858 22500.00000 0 9649641.165 -20590928.302 11555549.364 10 0 59858 23400.00000 0 10323699.203 -21645003.259 8685122.438 10 0 59858 24300.00000 0 10719671.634 -22441353.925 5645920.627 10 0 59858 25200.00000 0 10868443.319 -22933257.957 2496972.107 10 0 59858 26100.00000 0 10810180.016 -23083281.643 -700525.004 10 0 59858 27000.00000 0 10592393.772 -22864948.946 -3884395.482 10 0 59858 27900.00000 0 10267704.693 -22263969.143 -6992701.715 10 0 59858 28800.00000 0 9891394.509 -21278969.955 -9964955.790 10 0 59858 29700.00000 0 9518856.388 -19921703.977 -12743304.529 10 0 59858 30600.00000 0 9203049.982 -18216718.487 -15273663.508 10 0 59858 31500.00000 0 8992070.564 -16200501.583 -17506777.020 10 0 59858 32400.00000 0 8926936.164 -13920139.761 -19399182.751 10 0 59858 33300.00000 0 9039687.333 -11431542.747 -20914061.870 10 0 59858 34200.00000 0 9351880.663 -8797309.669 -22021957.733 10 0 59858 35100.00000 0 9873540.415 -6084325.658 -22701349.226 10 0 59858 36000.00000 0 10602612.975 -3361189.103 -22939067.774 10 0 59858 36900.00000 0 11524947.507 -695576.811 -22730550.176 10 0 59858 37800.00000 0 12614803.816 1848343.379 -22079922.767 10 0 59858 38700.00000 0 13835866.142 4212345.274 -20999915.651 10 0 59858 39600.00000 0 15142720.207 6346321.537 -19511609.062 10 0 59858 40500.00000 0 16482731.325 8210115.767 -17644017.112 10 0 59858 41400.00000 0 17798244.479 9774934.309 -15433517.322 10 0 59858 42300.00000 0 19029013.685 11024280.320 -12923137.330 10 0 59858 43200.00000 0 20114758.327 11954372.823 -10161712.897 10 0 59858 44100.00000 0 20997738.824 12574035.092 -7202933.851 10 0 59858 45000.00000 0 21625243.159 12904058.921 -4104296.886 10 0 59858 45900.00000 0 21951879.642 12976073.429 -925985.867 10 0 59858 46800.00000 0 21941579.476 12830967.695 2270298.301 10 0 59858 47700.00000 0 21569224.972 12516935.180 5422535.181 10 0 59858 48600.00000 0 20821835.105 12087223.535 8469586.294 10 0 59858 49500.00000 0 19699258.663 11597685.607 11352377.296 10 0 59858 50400.00000 0 18214346.001 11104235.368 14015037.993 10 0 59858 51300.00000 0 16392592.073 10660316.269 16405978.515 10 0 59858 52200.00000 0 14271265.414 10314488.595 18478881.445 10 0 59858 53100.00000 0 11898059.032 10108237.151 20193591.320 10 0 59858 54000.00000 0 9329318.708 10074091.177 21516885.241 10 0 59858 54900.00000 0 6627921.479 10234135.209 22423110.533 10 0 59858 55800.00000 0 3860891.403 10598973.279 22894677.854 10 0 59858 56700.00000 0 1096850.222 11167189.981 22922400.859 10 0 59858 57600.00000 0 -1596592.771 11925331.434 22505676.128 10 0 59858 58500.00000 0 -4155404.740 12848407.591 21652499.854 10 0 59858 59400.00000 0 -6521542.239 13900895.842 20379320.617 10 0 59858 60300.00000 0 -8645114.161 15038205.003 18710730.350 10 0 59858 61200.00000 0 -10486205.711 16208539.527 16678998.552 10 0 59858 62100.00000 0 -12016288.327 17355086.906 14323457.639 10 0 59858 63000.00000 0 -13219157.291 18418437.385 11689750.171 10 0 59858 63900.00000 0 -14091358.153 19339134.916 8828951.522 10 0 59858 64800.00000 0 -14642084.347 20060252.309 5796584.176 10 0 59858 65700.00000 0 -14892550.469 20529881.890 2651542.175 10 0 59858 66600.00000 0 -14874867.704 20703436.099 -545053.466 10 0 59858 67500.00000 0 -14630469.113 20545659.977 -3731046.015 10 0 59858 68400.00000 0 -14208151.647 20032269.325 -6844457.296 10 0 59858 69300.00000 0 -13661818.199 19151144.008 -9824700.527 10 0 59858 70200.00000 0 -13048015.958 17903024.541 -12613767.270 10 0 59858 71100.00000 0 -12423376.084 16301681.145 -15157364.476 10 0 59858 72000.00000 0 -11842063.946 14373546.914 -17405978.567 10 0 59858 72900.00000 0 -11353348.740 12156829.397 -19315845.175 10 0 59858 73800.00000 0 -10999396.050 9700137.050 -20849805.201 10 0 59858 74700.00000 0 -10813377.358 7060677.546 -21978030.215 10 0 59858 75600.00000 0 -10817976.810 4302102.857 -22678603.117 10 0 59858 76500.00000 0 -11024358.568 1492090.830 -22937942.907 10 0 59858 77400.00000 0 -11431638.413 -1300236.048 -22751065.593 10 0 59858 78300.00000 0 -12026881.761 -4006947.433 -22121676.562 10 0 59858 79200.00000 0 -12785628.042 -6563888.046 -21062093.009 10 0 59858 80100.00000 0 -13672918.994 -8913099.668 -19592998.321 10 0 59858 81000.00000 0 -14644787.253 -11004982.182 -17743033.543 10 0 59858 81900.00000 0 -15650142.169 -12800104.626 -15548234.152 10 0 59858 82800.00000 0 -16632973.031 -14270591.966 -13051323.397 10 0 59858 83700.00000 0 -17534776.544 -15401031.185 -10300876.204 10 0 59858 84600.00000 0 -18297105.969 -16188860.526 -7350370.158 10 0 59858 85500.00000 0 -18864134.244 -16644227.292 -4257142.374 10 0 59859 0.00000 0 -19185122.842 -16789322.078 -1081273.126 10 0 59859 900.00000 0 -19216692.362 -16657219.149 2115583.510 10 0 59859 1800.00000 0 -18924798.732 -16290273.187 5271394.634 10 0 59859 2700.00000 0 -18286332.379 -15738141.522 8324951.505 10 0 59859 3600.00000 0 -17290272.581 -15055515.889 11217052.861 10 0 59859 4500.00000 0 -15938348.622 -14299660.065 13891647.485 10 0 59859 5400.00000 0 -14245179.791 -13527857.372 16296913.917 10 0 59859 6300.00000 0 -12237887.963 -12794875.471 18386257.078 10 0 59859 7200.00000 0 -9955198.438 -12150554.816 20119203.129 10 0 59859 8100.00000 0 -7446065.737 -11637621.670 21462176.196 10 0 59859 9000.00000 0 -4767880.491 -11289816.992 22389142.785 10 0 59859 9900.00000 0 -1984330.845 -11130419.262 22882112.172 10 0 59859 10800.00000 0 836994.322 -11171222.836 22931483.735 10 0 59859 11700.00000 0 3627162.425 -11412014.608 22536234.808 10 0 59859 12600.00000 0 6318509.894 -11840571.094 21703945.408 10 0 59859 13500.00000 0 8847203.703 -12433176.566 20450658.994 10 0 59859 14400.00000 0 11155646.768 -13155641.252 18800581.252 10 0 59859 15300.00000 0 13194628.278 -13964777.793 16785621.791 10 0 59859 16200.00000 0 14925130.381 -14810274.902 14444786.501 10 0 59859 17100.00000 0 16319716.509 -15636890.366 11823431.171 10 0 59859 18000.00000 0 17363443.633 -16386871.727 8972389.827 10 0 59859 18900.00000 0 18054260.429 -17002503.043 5946993.822 10 0 59859 19800.00000 0 18402874.752 -17428670.251 2806000.141 10 0 59859 20700.00000 0 18432095.921 -17615336.412 -389550.381 10 0 59859 21600.00000 0 18175679.688 -17519821.414 -3577522.623 10 0 59859 22500.00000 0 17676724.761 -17108788.619 -6695900.922 10 0 59859 23400.00000 0 16985688.977 -16359853.097 -9684002.579 10 0 59859 24300.00000 0 16158109.506 -15262741.944 -12483666.640 10 0 59859 25200.00000 0 15252124.126 -13819956.097 -15040393.935 10 0 59859 26100.00000 0 14325899.160 -12046904.286 -17304415.214 10 0 59859 27000.00000 0 13435073.559 -9971502.105 -19231665.934 10 0 59859 27900.00000 0 12630327.828 -7633251.877 -20784648.245 10 0 59859 28800.00000 0 11955181.023 -5081841.060 -21933163.060 10 0 59859 29700.00000 0 11444109.157 -2375317.161 -22654898.007 10 0 59859 30600.00000 0 11121064.486 422085.119 -22935859.949 10 0 59859 31500.00000 0 10998458.002 3242374.104 -22770643.975 10 0 59859 32400.00000 0 11076647.678 6016387.816 -22162533.992 10 0 59859 33300.00000 0 11343953.536 8676429.729 -21123433.389 10 0 59859 34200.00000 0 11777198.286 11158844.219 -19673627.476 10 0 59859 35100.00000 0 12342750.067 13406425.114 -17841382.692 10 0 59859 36000.00000 0 12998022.653 15370557.791 -15662390.640 10 0 59859 36900.00000 0 13693369.180 17013006.453 -13179068.077 10 0 59859 37800.00000 0 14374288.920 18307273.248 -10439726.727 10 0 59859 38700.00000 0 14983853.433 19239473.854 -7497629.323 10 0 59859 39600.00000 0 15465249.258 19808694.403 -4409950.579 10 0 59859 40500.00000 0 15764329.457 20026816.482 -1236663.638 10 0 59859 41400.00000 0 15832066.077 19917819.228 1960626.148 10 0 59859 42300.00000 0 15626799.845 19516589.349 5119877.015 10 0 59859 43200.00000 0 15116192.139 18867290.555 8179812.865 10 0 59859 44100.00000 0 14278796.846 18021362.038 11081108.262 10 0 59859 45000.00000 0 13105185.848 17035231.034 13767533.440 10 0 59859 45900.00000 0 11598580.576 15967836.089 16187037.543 10 0 59859 46800.00000 0 9774962.720 14878065.216 18292749.709 10 0 59859 47700.00000 0 7662658.868 13822216.337 20043879.265 10 0 59859 48600.00000 0 5301415.590 12851586.121 21406498.548 10 0 59859 49500.00000 0 2741002.356 12010287.657 22354194.055 10 0 59859 50400.00000 0 39399.223 11333387.763 22868574.094 10 0 59859 51300.00000 0 -2739356.930 10845441.274 22939623.750 10 0 59859 52200.00000 0 -5527579.866 10559483.194 22565900.637 10 0 59859 53100.00000 0 -8256496.785 10476520.672 21754567.635 10 0 59859 54000.00000 0 -10858861.777 10585546.066 20521261.652 10 0 59859 54900.00000 0 -13271512.873 10864070.840 18889800.246 10 0 59859 55800.00000 0 -15437767.584 11279158.398 16891730.847 10 0 59859 56700.00000 0 -17309558.231 11788913.116 14565730.210 10 0 59859 57600.00000 0 -18849218.667 12344363.635 11956864.530 10 0 59859 58500.00000 0 -20030848.087 12891661.675 9115723.546 10 0 59859 59400.00000 0 -20841194.938 13374504.042 6097444.541 10 0 59859 60300.00000 0 -21280023.845 13736675.615 2960644.578 10 0 59859 61200.00000 0 -21359949.881 13924605.555 -233718.424 10 0 59859 62100.00000 0 -21105747.117 13889827.929 -3423533.539 10 0 59859 63000.00000 0 -20553160.497 13591241.602 -6546750.035 10 0 59859 63900.00000 0 -19747271.324 12997072.446 -9542591.528 10 0 59859 64800.00000 0 -18740485.655 12086453.344 -12352746.596 10 0 59859 65700.00000 0 -17590231.068 10850553.573 -14922511.765 10 0 59859 66600.00000 0 -16356459.649 9293208.297 -17201863.678 10 0 59859 67500.00000 0 -15099063.296 7431020.101 -19146438.896 10 0 59859 68400.00000 0 -13875311.013 5292926.907 -20718401.767 10 0 59859 69300.00000 0 -12737416.764 2919253.308 -21887183.171 10 0 59859 70200.00000 0 -11730340.691 360284.139 -22630075.744 10 0 59859 71100.00000 0 -10889916.311 -2325580.803 -22932674.170 10 0 59859 72000.00000 0 -10241382.362 -5074014.276 -22789152.245 10 0 59859 72900.00000 0 -9798380.553 -7817200.533 -22202371.717 10 0 59859 73800.00000 0 -9562460.685 -10486424.448 -21183821.189 10 0 59859 74700.00000 0 -9523113.092 -13014703.223 -19753386.636 10 0 59859 75600.00000 0 -9658325.984 -15339351.595 -17938958.380 10 0 59859 76500.00000 0 -9935643.199 -17404374.176 -15775882.429 10 0 59859 77400.00000 0 -10313676.703 -19162585.901 -13306267.166 10 0 59859 78300.00000 0 -10744009.079 -20577372.997 -10578159.120 10 0 59859 79200.00000 0 -11173404.831 -21624022.064 -7644604.108 10 0 59859 80100.00000 0 -11546236.395 -22290562.840 -4562612.363 10 0 59859 81000.00000 0 -11807021.753 -22578090.836 -1392048.066 10 0 59859 81900.00000 0 -11902966.008 -22500557.732 1805534.853 10 0 59859 82800.00000 0 -11786399.208 -22084039.769 4968087.643 10 0 59859 83700.00000 0 -11417007.292 -21365516.197 8034269.064 10 0 59859 84600.00000 0 -10763761.828 -20391210.236 10944631.747 10 0 59859 85500.00000 0 -9806467.081 -19214563.098 13642769.640 10 0 59860 0.00000 0 -8536859.192 -17893926.825 16076404.501 10 0 59860 900.00000 0 -6959210.142 -16490072.225 18198392.222 10 0 59860 1800.00000 0 -5090412.429 -15063618.080 19967626.982 10 0 59860 2700.00000 0 -2959537.782 -13672486.530 21349830.983 10 0 59860 3600.00000 0 -606888.886 -12369492.191 22318212.055 10 0 59860 4500.00000 0 1917418.268 -11200164.401 22853978.505 10 0 59860 5400.00000 0 4555283.873 -10200892.873 22946701.717 10 0 59860 6300.00000 0 7242791.307 -9397473.448 22594519.792 10 0 59860 7200.00000 0 9912623.297 -8804114.161 21804178.308 10 0 59860 8100.00000 0 12496628.628 -8422942.732 20590907.095 10 0 59860 9000.00000 0 14928434.363 -8244035.931 18978134.705 10 0 59860 9900.00000 0 17145996.185 -8245969.708 16997045.178 10 0 59860 10800.00000 0 19093981.790 -8396867.213 14685984.587 10 0 59860 11700.00000 0 20725888.630 -8655901.088 12089727.633 10 0 59860 12600.00000 0 22005807.839 -8975187.141 9258617.525 10 0 59860 13500.00000 0 22909760.617 -9301989.853 6247594.890 10 0 59860 14400.00000 0 23426550.844 -9581146.621 3115133.981 10 0 59860 15300.00000 0 23558097.755 -9757608.054 -77893.328 10 0 59860 16200.00000 0 23319234.368 -9778986.231 -3269403.568 10 0 59860 17100.00000 0 22736979.828 -9598002.132 -6397314.227 10 0 59860 18000.00000 0 21849316.204 -9174727.407 -9400758.446 10 0 59860 18900.00000 0 20703521.378 -8478524.125 -12221277.335 10 0 59860 19800.00000 0 19354128.560 -7489598.840 -14803965.855 10 0 59860 20700.00000 0 17860598.931 -6200103.677 -17098548.947 10 0 59860 21600.00000 0 16284806.023 -4614736.355 -19060366.308 10 0 59860 22500.00000 0 14688438.348 -2750812.353 -20651246.149 10 0 59860 23400.00000 0 13130430.091 -637804.922 -21840250.565 10 0 59860 24300.00000 0 11664528.252 1683628.896 -22604278.045 10 0 59860 25200.00000 0 10337098.518 4163096.336 -22928511.500 10 0 59860 26100.00000 0 9185261.875 6742331.141 -22806703.411 10 0 59860 27000.00000 0 8235439.650 9357392.713 -22241292.914 10 0 59860 27900.00000 0 7502367.260 11941110.859 -21243352.949 10 0 59860 28800.00000 0 6988617.063 14425674.461 -19832368.884 10 0 59860 29700.00000 0 6684649.095 16745256.501 -18035853.282 10 0 59860 30600.00000 0 6569386.167 18838566.418 -15888804.562 10 0 59860 31500.00000 0 6611287.790 20651223.725 -13433020.417 10 0 59860 32400.00000 0 6769876.254 22137854.470 -10716279.572 10 0 59860 33300.00000 0 6997649.287 23263823.719 -7791408.074 10 0 59860 34200.00000 0 7242297.451 24006532.494 -4715248.602 10 0 59860 35100.00000 0 7449131.696 24356225.996 -1547553.175 10 0 59860 36000.00000 0 7563617.760 24316280.393 1650178.954 10 0 59860 36900.00000 0 7533909.785 23902957.393 4815895.261 10 0 59860 37800.00000 0 7313275.727 23144638.060 7888192.437 10 0 59860 38700.00000 0 6862311.877 22080569.100 10807504.032 10 0 59860 39600.00000 0 6150852.909 20759175.058 13517250.283 10 0 59860 40500.00000 0 5159496.753 19236007.802 15964928.212 10 0 59860 41400.00000 0 3880679.829 17571419.444 18103121.495 10 0 59860 42300.00000 0 2319257.068 15828056.110 19890411.153 10 0 59860 43200.00000 0 492561.670 14068276.956 21292170.418 10 0 59860 44100.00000 0 -1570058.879 12351605.628 22281229.220 10 0 59860 45000.00000 0 -3828212.359 10732319.708 22838396.237 10 0 59860 45900.00000 0 -6231898.032 9257277.775 22952829.081 10 0 59860 46800.00000 0 -8723351.432 7964073.692 22622245.809 10 0 59860 47700.00000 0 -11239222.684 6879594.268 21852973.684 10 0 59860 48600.00000 0 -13712999.591 6019039.728 20659833.952 10 0 59860 49500.00000 0 -16077576.369 5385447.374 19065864.173 10 0 59860 50400.00000 0 -18267862.503 4969738.086 17101882.570 10 0 59860 51300.00000 0 -20223324.208 4751283.621 14805901.719 10 0 59860 52200.00000 0 -21890353.244 4698970.930 12222401.735 10 0 59860 53100.00000 0 -23224364.426 4772718.943 9401476.022 10 0 59860 54000.00000 0 -24191534.112 4925383.988 6397865.218 10 0 59860 54900.00000 0 -24770106.479 5104973.442 3269897.464 10 0 59860 55800.00000 0 -24951212.226 5257073.851 78355.417 10 0 59860 56700.00000 0 -24739164.703 5327390.256 -3114707.910 10 0 59860 57600.00000 0 -24151220.423 5264288.425 -6247181.018 10 0 59860 58500.00000 0 -23216813.585 5021231.188 -9258109.118 10 0 59860 59400.00000 0 -21976296.595 4559004.375 -12088888.161 10 0 59860 60300.00000 0 -20479239.609 3847636.583 -14684413.551 10 0 59860 61200.00000 0 -18782360.886 2867930.011 -16994160.206 10 0 59860 62100.00000 0 -16947175.439 1612536.100 -18973172.261 10 0 59860 63000.00000 0 -15037461.248 86529.047 -20582942.648 10 0 59860 63900.00000 0 -13116649.989 -1692548.256 -21792165.066 10 0 59860 64800.00000 0 -11245252.083 -3695169.024 -22577343.752 10 0 59860 65700.00000 0 -9478424.179 -5880818.810 -22923249.271 10 0 59860 66600.00000 0 -7863780.912 -8199462.117 -22823211.765 10 0 59860 67500.00000 0 -6439542.128 -10593418.722 -22279246.343 10 0 59860 68400.00000 0 -5233092.397 -12999571.708 -21302008.526 10 0 59860 69300.00000 0 -4260012.125 -15351815.322 -19910581.054 10 0 59860 70200.00000 0 -3523619.518 -17583640.719 -18132096.499 10 0 59860 71100.00000 0 -3015041.071 -19630751.967 -16001203.335 10 0 59860 72000.00000 0 -2713806.023 -21433603.273 -13559386.139 10 0 59860 72900.00000 0 -2588938.084 -22939751.833 -10854153.422 10 0 59860 73800.00000 0 -2600496.873 -24105928.449 -7938109.095 10 0 59860 74700.00000 0 -2701502.634 -24899739.793 -4867926.027 10 0 59860 75600.00000 0 -2840161.710 -25300931.871 -1703241.945 10 0 59860 76500.00000 0 -2962297.763 -25302162.558 1494500.592 10 0 59860 77400.00000 0 -3013885.195 -24909251.770 4663247.194 10 0 59860 78300.00000 0 -2943577.165 -24140899.731 7741534.310 10 0 59860 79200.00000 0 -2705120.998 -23027886.046 10669678.171 10 0 59860 80100.00000 0 -2259558.839 -21611783.913 13390926.992 10 0 59860 81000.00000 0 -1577120.543 -19943243.879 15852554.473 10 0 59860 81900.00000 0 -638728.887 -18079919.229 18006873.999 10 0 59860 82800.00000 0 562946.465 -16084119.739 19812154.550 10 0 59860 83700.00000 0 2022930.994 -14020291.410 21233421.518 10 0 59860 84600.00000 0 3723907.532 -11952426.655 22243127.828 10 0 59860 85500.00000 0 5636701.194 -9941512.071 22821683.151 99